Voltar ao catálogo

COSMOS 1823 DEB

AtivoLEO
NORAD 39818·DEBRIS·🇷🇺 Russia

Lançado Feb 20, 1987 de Plesetsk Cosmodrome

Loading…

Próximas Passagens (próximas 24 horas)

TLE

AtualizadoSource: Space-Track

Época: Sep 14, 2026, 08:12 UTC

1 39818U 87020ES  26257.34215078  .00000272  00000-0  18645-2 0  9995
2 39818  73.6151 127.4490 0027513 262.3573  97.4352 12.51628774544430

Acompanhe COSMOS 1823 DEB em tempo real com AllMySat

Download on the App Store